Regional Weather Roundup
Issued by NWS

Home | Current Version | Previous Version | Text Only | Print | Product List | Glossary On
Versions: 1 2 3 4 5 6 7 8 9 10 11 12 13 14 15 16 17 18 19 20 21 22 23 24 25 26 27 28 29 30 31 32 33 34 35 36 37 38 39 40 41 42 43 44 45 46 47 48 49 50
000
ASPQ40 PGUM 290512
RWRPQ
WEATHER ROUNDUP FOR THE MARIANAS AND MICRONESIA
NATIONAL WEATHER SERVICE TIYAN GU
300 PM CHST MON DEC 29 2014

GUZ001>004-290600-
MARIANA ISLANDS-

CITY           SKY/WX    TMP DP  RH WIND       PRES   REMARKS
GUAM AIRPORT   MOSUNNY   86  73  66 E13       29.79F HX  93
ANDERSEN AFB   MOSUNNY   82  75  78 E13       29.80F
ROTA AIRPORT   MOSUNNY   82  73  74 E13       29.81F
TINIAN AP      PTSUNNY   81  73  78 E16       29.79F
SAIPAN AP      MOSUNNY   84  73  70 E12G23    29.80F HX  91

$$

PMZ161-290600-
REPUBLIC OF PALAU-

CITY           SKY/WX    TMP DP  RH WIND       PRES   REMARKS
KOROR AP       PTSUNNY   88  81  79 E10G20    29.74F HX 105
KOROR WSO      CLOUDY    84  79  84 E7        29.72F HX  96

$$

PMZ171>174-290600-
FEDERATED STATES OF MICRONESIA-

CITY           SKY/WX    TMP DP  RH WIND       PRES   REMARKS
YAP AIRPORT    PTSUNNY   86  77  74 VRB6      29.74F HX  97
CHUUK AP       LGT RAIN  84  79  84 NE14      29.71R HX  96
POHNPEI AP     NOT AVBL
POHNPEI WSO    CLOUDY    84  77  79 E12       29.76S HX  94
KOSRAE AP      NOT AVBL

$$

PMZ181-290600-
REPUBLIC OF THE MARSHALL ISLANDS-

CITY           SKY/WX    TMP DP  RH WIND       PRES   REMARKS
KWAJALEIN AP   MOSUNNY   84  70  61 NE22      29.75R
MAJURO AP      MOSUNNY   84  75  74 NE21      29.72R HX  92
MAJURO WSO     MOSUNNY   84  73  70 NE20      29.72R HX  91

$$



USA.gov is the U.S. government's official web portal to all federal, state and local government web resources and services.